Weather in Panteleymonovka

Russia / Primorsky Krai     45°38′10″N   133°35′33″E
temp.,
°C
wind,
m/s
gust,
m/s
humid.,
%
clouds,
%
prec.,
mm/h
press.,
hPa
HPBL,
m
8 may, sat
sat801:00+11ene2479100 0.5 98892
04:00+10wnw2287100 1.2 98979
07:00+10wsw2496100 1.1 991210
10:00+10sw4794100 2.9 993484
13:00+12wsw4681100 0.3 995737
16:00+16sw4657100 0.9 9941481
19:00+14ene3669100 0.0 993156
22:00+12ene51177100 0.1 992392
9 may, sun
sun901:00+12ese71562100 0.0 989497
04:00+11se91562100 0.0 989966
07:00+9se61279100 1.4 992808
10:00+10ese787682 1.6 994928
13:00+11ene5576100 0.1 995780
16:00+12nne457183 0.6 996957
19:00+10ne5884100 0.8 999663
22:00+8n3591100 0.9 1002284
10 may, mon
mon1001:00+8nnw3692100 0.1 1004454
04:00+7nw4695100 0.3 1005309
07:00+7nw4691100 0.2 1007387
10:00+7nnw4585100 0.2 1009590
13:00+7nnw4485100 0.1 1010639
16:00+9n2476100 0.1 1011786
19:00+10wnw2473100 0.1 1012121
22:00+8nnw3780100 0.3 1014197
11 may, tue
tue1101:00+8nw2588100 0.0 1015183
04:00+7nw2391100 0.1 101592
07:00+8wnw1290100 0.0 1017113
10:00+11w227767 0.1 1018643
13:00+14wnw326161 0.4 10181186
16:00+16n115187 0.7 10161674
19:00+15s225697 0.1 101657
22:00+11s22696 0.1 101729
12 may, wed
wed1201:00+9s3477100 0.0 101760
04:00+7s3583100 0.0 1018124
07:00+8s3785100 0.0 1017200
10:00+12s5968100 0.0 1016706
13:00+13ssw71564100 0.1 10151312
16:00+13s71366100 0.8 10131486
19:00+11ssw91683100 0.8 10121107
22:00+10ssw9158199 1.1 1013998